Regional Weather Roundup
Issued by NWS Midland/Odessa, TX

Skip options and go directly to product.
Home | Oldest Version | Previous Version | Current Version | All | Text Only | Save Text | Print | Product List | Glossary On

Skip product version selection by date and time.   
530
ASUS44 KMAF 081410
RWRMAF
MIDLAND AREA WEATHER ROUNDUP
NATIONAL WEATHER SERVICE MIDLAND TX
800 AM CST THU DEC 08 2016

...IN SOUTHWEST TEXAS AND SOUTHEAST NEW MEXICO...

CITY           SKY/WX    TMP DP  RH WIND       PRES   REMARKS
ALPINE         CLOUDY    28  27  99 NE15      30.47R VSB 1   WCI  16
ANDREWS        LGT RAIN  26  24  94 NE16      30.54R WCI  13
ARTESIA        CLOUDY    28  19  69 NE8       30.53R WCI  20
BIG SPRING     CLOUDY    28  25  89 N15       30.58R WCI  16
CARLSBAD       CLOUDY    30  24  78 E5        30.52R WCI  25
DRYDEN           N/A     37  29  72 N18G26    30.45R WCI  27
FORT STOCKTON  LGT SNOW  28  27  96 NE12      30.51R FOG     WCI  18
GUAD PASS      SNOW      22  22 100 NE38G46   30.34R VSB 1/4 WCI   2
HOBBS          CLOUDY    25  19  80 NE14      30.52R WCI  13
MARFA          CLOUDY    29  25  85 NE17G25   30.38R WCI  17
MIDLAND AIRPK  LGT SNOW  28  25  86 NE15      30.56R WCI  17
MIDLAND INTL   LGT SNOW  27  22  81 NE15      30.54R WCI  15
ODESSA         LGT SNOW  27  22  81 NE14G24   30.53R WCI  16
PECOS          LGT SNOW  30  28  94 E8        30.56R WCI  22
PRESIDIO       CLOUDY    43  31  63 N18G26    30.34R WCI  35
SEMINOLE       FLURRIES  26  22  85 NE14      30.55R WCI  14
SNYDER         CLOUDY    26  21  82 NE14      30.59R WCI  14
WINK           LGT SNOW  28  26  92 NE12      30.54R FOG     WCI  18
$$
...OTHER STATIONS IN TEXAS...

CITY           SKY/WX    TMP DP  RH WIND       PRES   REMARKS
ABILENE        LGT SNOW  27  22  81 N17G23    30.59R WCI  14
AMARILLO       CLOUDY    15   8  73 N12       30.57R WCI   2
AUSTIN         CLOUDY    41  30  65 N26G37    30.46R WCI  30
BROWNSVILLE    LGT RAIN  65  63  93 N15G24    30.13R
CORPUS CHRISTI CLOUDY    55  50  83 N26G32    30.23R
DALLAS FTW     CLOUDY    32  22  66 N20G31    30.56R WCI  20
DEL RIO        CLOUDY    44  33  65 N15G23    30.43R WCI  37
EL PASO        CLOUDY    37  25  61 NE10      30.33R WCI  30
HOUSTON INT    CLOUDY    48  45  89 N25       30.35R
LUBBOCK        CLOUDY    24  17  74 N13       30.55R WCI  12
SAN ANGELO     CLOUDY    32  25  75 N23       30.54R WCI  19
SAN ANTONIO    MOCLDY    43  34  70 N26G35    30.39R WCI  33
WACO           CLOUDY    37  29  72 N22G29    30.52R WCI  26
WICHITA FALLS  NOT AVBL
$$
...OTHER LOCATIONS IN NEW MEXICO...

CITY           SKY/WX    TMP DP  RH WIND       PRES   REMARKS
ALAMAGORDO     NOT AVBL
ALBUQUERQUE    CLOUDY    24  13  62 NW6       30.36R WCI  17
CANNON AFB     CLOUDY    19  19  99 NE13      30.50R WCI   6
CLOVIS         CLOUDY    19  12  73 NE12      30.50S WCI   7
HOLLOMAN AFB   CLOUDY    32  17  55 NW3       30.38R
ROSWELL        CLOUDY    27  17  66 E7        30.52R WCI  19
RUIDOSO        FOG       16  14  93 SE8       30.37R VSB<1/4 WCI   5
SANTA FE       CLOUDY    15   8  73 SE13      30.34R WCI   1
TRUTH OR CONSE CLEAR     27  15  61 N14G23    30.31R WCI  16
TUCUMCARI      LGT SNOW  19  13  77 E12       30.51S WCI   7
$$

  • National Weather Service
  • Southern Region Headquarters
  • 819 Taylor Street, Room 10A06
  • Fort Worth, TX 76102
  • Page Author: NWS Fort Worth
  • Web Master: SR-SRH.Webmaster@noaa.gov
  •  
  • Page last modified: 30-Sep-2016 6:36 PM UTC
USA.gov is the U.S. government's official web portal to all federal, state and local government web resources and services.